"Pseudo-MPEC" for A10quWh

Created 2020 Sep 16 22:07:04 UT using Find_Orb

Click here for an explanation of pseudo-MPECs

 
 Astrometry: 
     A10quWh  C2020 09 15.45446223 02 53.19 -17 09 18.4    ~9FCb 19.38oVNEOCPT08
     A10quWh  C2020 09 15.47461723 02 39.93 -17 05 55.5    ~9FCb 19.22oVNEOCPT08
     A10quWh  C2020 09 15.47784323 02 37.75 -17 05 21.6    ~9FCb 19.51oVNEOCPT08
     A10quWh  C2020 09 15.48343523 02 34.14 -17 04 25.3    ~9FCb 19.44oVNEOCPT08
     A10quWh KC2020 09 15)bj?xho*W+ehlW'Ojd;sT9imGHuO#[``CP%BOO4kq'#x0m=fq?/dE23
     A10quWh KC2020 09 15f19htN-S:%\@/qfRi%b6Bhmae2NvKjFlrSy23\,BSLH+;'GQ#j-qE23
     A10quWh KC2020 09 15QL)Y.I@.J2WfljHSfU%5:Ap;Lt+4k7`Np=\t]EDJ%!6LF8%2G*!;E23
     A10quWh KC2020 09 15%rV,FAstrometryb@kSZ?IwUC[Tg_4CO`CAe/hI1))]95)U/N.imE23
     A10quWh 1C2020 09 15XA!VWC;k@j+c1JrSs]6VtOEW+T+9xxK?U'u2JjWD4-yfYR_qBpkq246
     A10quWh 1C2020 09 15;IVJTJH-uAbpN`+Jt!1sgE%Gv-rl0)eSr(_Z_UbeoGjCH!5u;v8$246
     A10quWh 1C2020 09 15n*hQS^%gW9Lf!k[H[$p7t+7o!redacted;.kmf9wTEQ.)ogpL'v8246
     A10quWh 1C2020 09 15(hM+IQU`%;Rt`?/L2`W7ha`V1f7.$sv+$E\4`aO85ER.T$tn^R_'246
     A10quWh 1C2020 09 15my7$eN2CGbN.d:H%C:nhlBJvjb(OiuNTm.f6V)67(P9-MS!;EW7I246
     A10quWh 1C2020 09 15-'160!e8[?+j`ui96ZA@M(m].%:ENG976n#NPv3@6.@%!09BPf$C246
     A10quWh 1C2020 09 15la+K!*S0m:FaqN7m;1*#+c$;#FkC$h6eM;fWohg\g#-ooU0Z93fk246
     A10quWh KC2020 09 15'Y7M#o;mZC.clickFWiBs%/Q3YhiZ[WF7H(q:UN/Jujm]jheren;L01
     A10quWh KC2020 09 15Yjh9ys2sHT)3T@[\kO7?_bn)URs#G-m5GcY\N56WHkw^Mig?b'W/L01
     A10quWh KC2020 09 156c]n0j;yjbJvExe5UhZ,bum'8tbI]Rf@vdO.XlX.7Vt1;B#mi^_=L01
     A10quWh KC2020 09 15b!RNAS$`ITn'F'67]dqIZ2AVihEMNc'j4?_ACyjQnqwuah2%`59rL01
     A10quWh KC2020 09 15.92941822 58 17.05 -15 49 03.5    ~9FMb 19.6 GVNEOCPI93
     A10quWh KC2020 09 15.93183722 58 15.44 -15 48 38.1    ~9FMb 19.9 GVNEOCPI93
     A10quWh KC2020 09 15.93433022 58 13.82 -15 48 12.4    ~9FMb 19.5 GVNEOCPI93
     A10quWh KC2020 09 16VoE;CMXK=v_\5Z5p1]Ac2]Qx74VdjKZi@#RN4NgJG*S=j9YVP0TlH21
     A10quWh KC2020 09 16h@3(H#s!,-)sWGAbT8Xx+7T[G/(#Q^CdfCgiG`jSGs$uGfO:xNEiH21
     A10quWh KC2020 09 16\[7kcnC!8ah[(W\forh!55NpnI=4SW3[#=8mc!b`VGD5PUrrVab+H21
     A10quWh  C2020 09 16.16928 22 55 56.20 -15 06 03.5    ~9G4M 19.5 GVNEOCPI52
     A10quWh  C2020 09 16.17001 22 55 55.71 -15 05 55.2    ~9G4M 19.2 GVNEOCPI52
     A10quWh  C2020 09 16.17075 22 55 55.24 -15 05 47.0    ~9G4M 19.8 GVNEOCPI52
     A10quWh  C2020 09 16.17149 22 55 54.74 -15 05 39.7    ~9G4M 19.1 GVNEOCPI52
     A10quWh KC2020 09 16WV.Oja,WvcZ:!'WVC=3w13HA_AwF]\X9k-],m;)WOw2VTCTK0QiA711
     A10quWh KC2020 09 16d8b#3:Jpv(cAiFN\;1mj.!b#U33,V.KnKN[eRQ;4:]#;e`Vv-!*3711
     A10quWh KC2020 09 16F613#qi2B^7K?#Kql?.oZM/kI=l-*H-uY@RP0dMn!RgW/8)!27KF711
     A10quWh KC2020 09 16e47h+]P6+]e$=I4\P\7(Io7Rm(irN.,fQ8I'(/mMBdv0Fl^.p-f_E23
     A10quWh KC2020 09 16Gn(?BkKbB=f#EuA8#SN#YAahkHBW-i%jb![3dWQ*ZPYUC[s4H#HiE23
     A10quWh KC2020 09 16ej4g2kuUJ?=K*iW5skfRF/h@/Vh2$1QnE?Zjn5:g,?g7/xL\iliiE23
     A10quWh KC2020 09 16!1/dgQQF(n;!)+Iry6%sWp\/BRiaBjr+/:]``yB.;x7G0T85MI+/K83
     A10quWh KC2020 09 16Y''1pi-;;9JUvdoO,$j*oE,%yxnLGy5Z[l+_S!l$0hhZru8bY-a?K83
     A10quWh KC2020 09 163`='f?[!yprE!Wy2kw4oW,DoHWdwiJnKk3,lgfWPeYb1`_y/p_-?104
     A10quWh KC2020 09 16aBKoePexplanationd6AQvgx,_V\Jix5)8hl.MyNirJ:g5jQe]SU104
     A10quWh KC2020 09 16U_:eu?TsT81w*@J^HmVr.waROA2DKgS0(r_!XUD,IdWaf$q^2ny?104

Station data:
(104) San Marcello Pistoiese  (N44.063037 E10.804200)  Italy. 0.40-m f/5
   reflector.
(246) Klet Observatory-KLENOT  (N48.863293 E14.288100)  Czech Republic.
   1.06-m KLENOT telescope.
(711) McDonald Observatory, Fort Davis  (N30.671481 W104.021500)  US/Texas.
   0.76-m f/3.0 reflector.
(E23) Arcadia  (S33.621199 E151.071190)  Australia/NSW.
(H21) Astronomical Research Observatory, Westfield  (N39.483057 W87.968270)
   US/Illinois. 0.76-m f/3.0 astrograph + CCD.
(I52) Steward Observatory, Mt. Lemmon Station  (N32.442547 W110.788920)
   US/Arizona.  Observers T. A. Pruyne, B. M. Africano, E. J. Christensen, G.
   A. Farneth, D. C. Fuls, A. R. Gibbs, A. D. Grauer, H. Gröller, J. A.
   Johnson, R. A. Kowalski, S. M. Larson, G. J. Leonard, D. Rankin, R. L.
   Seaman, F. C. Shelly. 1.0-m reflector + CCD.
(I93) St Pardon de Conques  (N44.558710 W0.203000)  France.  Observer F.
   Losse. 0.40-m f/3.7 reflector + CCD.
(K83) Beppe Forti Astronomical Observatory, Montelupo  (N43.755333
   E11.043170)  Italy.
(L01) Višnjan Observatory, Tičan  (N45.290900 E13.749300)  Croatia.
   Observers K. Korlević, E. Pettarin. Measurer E. Pettarin. 1.0-m f/2.9
   reflector + CCD.
(T08) ATLAS-MLO, Mauna Loa  (N19.536152 W155.576050)  US/Hawaii.  Observers
   L. Denneau, A. Heinze, H. Weiland, J. Tonry, H. Flewelling, A.
   Fitzsimmons, D. Young, B. Stalder. Measurers L. Denneau, A. Heinze, J.
   Tonry. 0.5-m f/2.0 Schmidt + CCD.

Orbital elements:  A10quWh
   Perihelion 2020 Dec 3.885072 +/- 0.0353 TT = 21:14:30 (JD 2459187.385072)
Epoch 2020 Sep 16.0 TT = JDT 2459108.5   Earth MOID: 0.0347   AutoNEOCP
M 291.15404188 +/- 0.049            (J2000 ecliptic)
n   0.87273746 +/- 0.000237         Peri.   81.88759 +/- 0.028
a   1.08446024 +/- 0.000197         Node   354.59437 +/- 0.0007
e   0.1330863 +/- 0.000198          Incl.   10.92173 +/- 0.011
P   1.13/412.49d           H 25.4   G  0.15   U  7.1  
q 0.94013344 +/- 4.87e-5    Q 1.22878704 +/- 0.000437
From 40 observations 2020 Sept. 15-16 (34.0 hr); mean residual 0".37
Residuals in arcseconds: 
200915 T08  .41+  .41+    200915 246  .35-  .52+    200916 I52  .07+  .22-    
200915 T08  .61+  .86-    200915 L01  .75-  .24-    200916 711  .76+  .06+    
200915 T08  .27-  .25+    200915 L01  .35-  .28-    200916 711  .80+  .05+    
200915 T08  .58+  .36-    200915 L01  .29+  .11-    200916 711  .10+  .33+    
200915 E23  .71-  .30-    200915 L01  .47-  .08-    200916 E23  .46-  .27-    
200915 E23  .35-  .37+    200915 I93  .02-  .21+    200916 E23  .10-  .15+    
200915 E23  .36+  .07-    200915 I93  .25-  .35+    200916 E23  .11+  .06-    
200915 E23  .10-  .78+    200915 I93  .10+  .00     200916 K83  .75+  .61+    
200915 246  .16-  .40+    200916 H21  .14+  .18-    200916 K83  .42+  .24-    
200915 246  .16-  .18-    200916 H21  .05+  .12-    200916 104  .59-  .10+    
200915 246  .58-  .36-    200916 H21  .36+  .11-    200916 104  .49-  .29-    
200915 246  .38-  .16+    200916 I52  .08-  .61-    200916 104  .46-  .11-    
200915 246  .22-  .12-    200916 I52  .14-  .04-    
200915 246  .22+  .30+    200916 I52  .18+  .32+    

Ephemerides (geocentric):
Date (UTC) HH   RA              Dec         delta   r     elong  mag " sig PA
---- -- -- --  -------------   -----------  ------ ------ -----  --- ---- ---
2020 09 16 22  22 48 04.115   -12 44 55.96  .04470 1.0481 163.7 19.6 .131 148
2020 09 16 23  22 47 37.641   -12 36 53.84  .04462 1.0480 163.6 19.6 .124 147
2020 09 17 00  22 47 11.111   -12 28 49.89  .04455 1.0480 163.6 19.6 .116 147
2020 09 17 01  22 46 44.525   -12 20 44.12  .04447 1.0479 163.6 19.6 .108 146
2020 09 17 02  22 46 17.882   -12 12 36.53  .04440 1.0478 163.5 19.6 .099 146
2020 09 17 03  22 45 51.183   -12 04 27.11  .04433 1.0477 163.5 19.6 .090 145
2020 09 17 04  22 45 24.428   -11 56 15.88  .04426 1.0476 163.4 19.6 .079 144
2020 09 17 05  22 44 57.618   -11 48 02.84  .04418 1.0475 163.4 19.6 .069 143
2020 09 17 06  22 44 30.751   -11 39 47.99  .04411 1.0474 163.3 19.6 .057 141
2020 09 17 07  22 44 03.829   -11 31 31.33  .04404 1.0473 163.3 19.6 .045 139
2020 09 17 08  22 43 36.851   -11 23 12.86  .04397 1.0472 163.2 19.6 .032 135
2020 09 17 09  22 43 09.817   -11 14 52.60  .04390 1.0471 163.1 19.6 .020 126
2020 09 17 10  22 42 42.729   -11 06 30.54  .04383 1.0470 163.1 19.6 8.5m  85
2020 09 17 11  22 42 15.585   -10 58 06.69  .04376 1.0469 163.0 19.6 .014   3
2020 09 17 12  22 41 48.386   -10 49 41.06  .04369 1.0469 162.9 19.6 .028 164
2020 09 17 13  22 41 21.132   -10 41 13.64  .04362 1.0468 162.9 19.6 .044 158
2020 09 17 14  22 40 53.824   -10 32 44.44  .04355 1.0467 162.8 19.6 .061 155
2020 09 17 15  22 40 26.460   -10 24 13.47  .04349 1.0466 162.7 19.6 .078 153
2020 09 17 16  22 39 59.043   -10 15 40.73  .04342 1.0465 162.7 19.6 .097 152
2020 09 17 17  22 39 31.570   -10 07 06.23  .04335 1.0464 162.6 19.6 .116 151
2020 09 17 18  22 39 04.044   -09 58 29.97  .04329 1.0463 162.5 19.6 .135 151
2020 09 17 19  22 38 36.463   -09 49 51.96  .04322 1.0462 162.4 19.6 .156 150
2020 09 17 20  22 38 08.829   -09 41 12.20  .04316 1.0461 162.3 19.6 .177 150
2020 09 17 21  22 37 41.141   -09 32 30.70  .04309 1.0460 162.3 19.6 .200 149
2020 09 17 22  22 37 13.399   -09 23 47.47  .04303 1.0459 162.2 19.6 .222 149
2020 09 17 23  22 36 45.604   -09 15 02.51  .04296 1.0459 162.1 19.6 .246 149
2020 09 18 00  22 36 17.755   -09 06 15.83  .04290 1.0458 162.0 19.6 .270 148
2020 09 18 01  22 35 49.853   -08 57 27.44  .04284 1.0457 161.9 19.6 .295 148
2020 09 18 02  22 35 21.899   -08 48 37.34  .04278 1.0456 161.8 19.6 .321 148
2020 09 18 03  22 34 53.891   -08 39 45.54  .04271 1.0455 161.7 19.6 .348 148
2020 09 18 04  22 34 25.831   -08 30 52.05  .04265 1.0454 161.6 19.6 .375 148
2020 09 18 05  22 33 57.718   -08 21 56.87  .04259 1.0453 161.5 19.6 .404 148
2020 09 18 06  22 33 29.553   -08 13 00.02  .04253 1.0452 161.4 19.6 .433 147
2020 09 18 07  22 33 01.336   -08 04 01.50  .04247 1.0451 161.3 19.6 .463 147
2020 09 18 08  22 32 33.066   -07 55 01.32  .04241 1.0450 161.2 19.6 .493 147
2020 09 18 09  22 32 04.745   -07 45 59.48  .04236 1.0449 161.1 19.6 .525 147
2020 09 18 10  22 31 36.373   -07 36 56.00  .04230 1.0448 161.0 19.6 .557 147
2020 09 18 11  22 31 07.949   -07 27 50.89  .04224 1.0448 160.9 19.6 .590 147
2020 09 18 12  22 30 39.473   -07 18 44.15  .04218 1.0447 160.8 19.6 .624 147
2020 09 18 13  22 30 10.947   -07 09 35.80  .04213 1.0446 160.7 19.6 .659 147
2020 09 18 14  22 29 42.370   -07 00 25.84  .04207 1.0445 160.6 19.6 .694 147
2020 09 18 15  22 29 13.742   -06 51 14.28  .04201 1.0444 160.4 19.6 .730 146
2020 09 18 16  22 28 45.063   -06 42 01.14  .04196 1.0443 160.3 19.6 .768 146
2020 09 18 17  22 28 16.334   -06 32 46.42  .04190 1.0442 160.2 19.6 .806 146
2020 09 18 18  22 27 47.555   -06 23 30.13  .04185 1.0441 160.1 19.6 .844 146
2020 09 18 19  22 27 18.727   -06 14 12.29  .04180 1.0440 160.0 19.6 .884 146
2020 09 18 20  22 26 49.848   -06 04 52.90  .04174 1.0439 159.8 19.6 .925 146
2020 09 18 21  22 26 20.920   -05 55 31.98  .04169 1.0438 159.7 19.6 .966 146